KF0ZH Weather Reports


Display with metric or nautical units.
time (UTC)temp
F
wind
direction
speed
MPH
gust
MPH
rain 1hr
in
rain 24hr
in
rain mn
in
humidity
%
barometer
mb
20260902143528 71 1 4.0 6.0 0.00 0.00 0.00 89 1010.7
20260902143457 71 1 4.0 6.0 0.00 0.00 0.00 89 1010.7
20260902142958 71 67 6.0 8.0 0.00 0.00 0.00 87 1010.8
20260902142458 71 57 0.0 6.0 0.00 0.00 0.00 88 1010.8
20260902141001 70 57 0.0 6.0 0.00 0.00 0.00 91 1011.1
20260902135457 69 73 0.0 4.0 0.00 0.00 0.00 93 1011.1
20260902134457 69 66 0.0 2.0 0.00 0.00 0.00 94 1011.1
20260902133457 68 52 1.0 5.0 0.00 0.00 0.00 94 1010.9
20260902132958 68 66 0.0 2.0 0.00 0.00 0.00 96 1010.9
20260902132457 68 66 0.0 4.0 0.00 0.00 0.00 96 1010.9
20260902131957 68 78 1.0 7.0 0.00 0.00 0.00 96 1011.0
20260902131457 68 19 0.0 0.0 0.00 0.00 0.00 98 1011.1
20260902130957 68 19 0.0 0.0 0.00 0.00 0.00 99 1011.1
20260902130457 68 19 0.0 5.0 0.00 0.00 0.00 99 1011.0
20260902130038 68 67 0.0 4.0 0.00 0.00 0.00 99 1011.0
20260902125457 67 43 0.0 0.0 0.00 0.00 0.00 99 1010.9
20260902124457 67 4 0.0 4.0 0.00 0.00 0.00 99 1010.9
20260902122958 66 56 0.0 0.0 0.00 0.00 0.00 99 1011.1
20260902122002 66 56 0.0 1.0 0.00 0.00 0.00 99 1010.8
20260902121457 66 56 0.0 3.0 0.00 0.00 0.00 99 1010.7
20260902120957 66 59 0.0 2.0 0.00 0.00 0.00 99 1010.7
20260902115958 66 140 0.0 0.0 0.00 0.00 0.00 99 1010.8
20260902115457 66 140 0.0 0.0 0.00 0.00 0.00 99 1010.9
20260902114957 66 140 0.0 0.0 0.00 0.00 0.00 99 1010.8
20260902114530 66 140 0.0 0.0 0.00 0.00 0.00 99 1010.7
20260902114457 66 140 0.0 0.0 0.00 0.00 0.00 99 1010.7
20260902114032 66 140 0.0 0.0 0.00 0.00 0.00 99 1010.9
20260902113957 66 140 0.0 0.0 0.00 0.00 0.00 99 1010.9
20260902113458 66 140 0.0 0.0 0.00 0.00 0.00 99 1010.8
20260902112957 66 140 0.0 0.0 0.00 0.00 0.00 99 1010.7
20260902112458 66 140 0.0 0.0 0.00 0.00 0.00 99 1010.9
20260902111957 66 140 0.0 0.0 0.00 0.00 0.00 99 1011.0
20260902111535 66 140 0.0 3.0 0.00 0.00 0.00 99 1011.1
20260902111459 66 140 0.0 3.0 0.00 0.00 0.00 99 1011.1
20260902111005 66 164 0.0 0.0 0.00 0.00 0.00 99 1011.6
20260902110457 66 164 0.0 0.0 0.00 0.00 0.00 99 1011.7
20260902105958 66 164 0.0 0.0 0.00 0.00 0.00 99 1011.6
20260902105457 66 164 0.0 0.0 0.00 0.00 0.00 99 1011.6
20260902104957 66 164 0.0 0.0 0.00 0.00 0.00 99 1011.4
20260902104459 66 164 0.0 0.0 0.00 0.00 0.00 99 1011.8
20260902104005 66 164 0.0 0.0 0.00 0.00 0.00 99 1011.7
20260902101957 67 164 0.0 3.0 0.00 0.00 0.00 99 1011.8
20260902101458 67 180 0.0 0.0 0.00 0.00 0.00 98 1011.8
20260902100957 67 180 0.0 0.0 0.00 0.00 0.00 98 1011.8
20260902100457 67 180 0.0 0.0 0.00 0.00 0.00 98 1011.9
20260902095958 67 180 0.0 3.0 0.00 0.00 0.00 98 1011.8
20260902094957 67 149 0.0 0.0 0.00 0.00 0.00 98 1011.6
20260902094456 67 149 0.0 0.0 0.00 0.00 0.00 98 1011.2
20260902093457 67 149 0.0 3.0 0.00 0.00 0.00 98 1010.6
20260902092957 67 82 0.0 2.0 0.00 0.00 0.00 97 1010.5
20260902092457 67 111 0.0 6.0 0.00 0.00 0.00 97 1010.5
20260902091957 67 160 0.0 8.0 0.00 0.00 0.00 97 1010.5
20260902091457 67 143 0.0 0.0 0.00 0.00 0.00 97 1010.3
20260902090957 67 143 0.0 8.0 0.00 0.00 0.00 96 1010.3
20260902090457 67 210 7.0 9.0 0.00 0.00 0.00 96 1010.4
20260902090032 67 140 0.0 8.0 0.00 0.00 0.00 96 1010.0
20260902085958 67 140 0.0 8.0 0.00 0.00 0.00 96 1010.0
20260902085529 67 150 0.0 8.0 0.00 0.00 0.00 96 1010.0
20260902085457 67 150 0.0 8.0 0.00 0.00 0.00 96 1010.0
20260902084957 67 189 7.0 9.0 0.00 0.00 0.00 96 1010.1
20260902084457 67 36 0.0 5.0 0.00 0.00 0.00 96 1009.5
20260902083957 67 9 0.0 4.0 0.00 0.00 0.00 96 1009.1
20260902083457 67 53 3.0 6.0 0.00 0.00 0.00 96 1009.2
20260902082957 67 47 3.0 7.0 0.00 0.00 0.00 96 1009.3
20260902082457 67 67 4.0 7.0 0.00 0.00 0.00 96 1009.4
20260902081957 67 82 0.0 8.0 0.02 0.00 0.00 97 1009.5
20260902081459 67 28 4.0 8.0 0.02 0.00 0.00 98 1009.7
20260902080456 67 25 0.0 5.0 0.02 0.00 0.00 97 1010.3
20260902080038 67 116 0.0 5.0 0.02 0.00 0.00 97 1010.5
20260902075957 67 116 0.0 5.0 0.02 0.00 0.00 97 1010.5
20260902075456 67 37 0.0 6.0 0.00 0.00 0.00 97 1010.4
20260902074956 67 90 3.0 7.0 0.00 0.00 0.00 97 1010.1
20260902073957 67 140 0.0 0.0 0.00 0.00 0.00 96 1010.8
20260902073457 67 140 0.0 0.0 0.00 0.00 0.00 96 1010.9
20260902072956 67 140 0.0 4.0 0.00 0.00 0.00 96 1010.2
20260902072457 68 71 0.0 2.0 0.00 0.00 0.00 95 1009.9
20260902071958 68 91 0.0 5.0 0.00 0.00 0.00 95 1010.1
20260902071457 68 112 0.0 6.0 0.00 0.00 0.00 94 1010.1
20260902070957 69 90 6.0 7.0 0.00 0.00 0.00 94 1010.2
20260902070459 69 80 0.0 8.0 0.00 0.00 0.00 94 1010.3
20260902065957 70 90 0.0 2.0 0.00 0.00 0.00 93 1010.8
20260902065456 70 99 0.0 0.0 0.00 0.00 0.00 92 1011.2
20260902064958 70 99 0.0 5.0 0.00 0.00 0.00 92 1011.7
20260902064458 70 146 3.0 10.0 0.00 0.00 0.00 92 1012.2
20260902063958 71 153 5.0 11.0 0.00 0.00 0.00 92 1012.5
20260902063456 71 175 7.0 11.0 0.00 0.00 0.00 92 1012.8
20260902062958 71 187 6.0 19.0 0.00 0.00 0.00 92 1013.2
20260902062456 71 174 13.0 16.0 0.00 0.00 0.00 92 1013.5
20260902061456 71 341 0.0 0.0 0.00 0.00 0.00 94 1012.6
20260902055957 71 341 0.0 0.0 0.00 0.00 0.00 95 1011.6
20260902054456 72 341 0.0 3.0 0.00 0.00 0.00 96 1010.5
20260902053958 72 330 3.0 3.0 0.00 0.00 0.00 96 1010.3
20260902053456 72 188 0.0 0.0 0.00 0.00 0.00 96 1010.4
20260902053007 72 188 0.0 0.0 0.00 0.00 0.00 96 1010.5
20260902052456 72 188 0.0 0.0 0.00 0.00 0.00 96 1010.6
20260902051956 72 188 0.0 0.0 0.00 0.00 0.00 96 1011.0
20260902051456 72 188 0.0 0.0 0.00 0.00 0.00 96 1011.2
20260902050956 72 188 0.0 0.0 0.00 0.00 0.00 96 1011.2
20260902050649 72 188 0.0 0.0 0.00 0.00 0.00 96 1011.8
20260902050456 72 188 0.0 0.0 0.00 0.00 0.00 96 1011.8
20260902045958 72 188 0.0 4.0 0.00 0.00 0.00 97 1012.1
20260902045456 71 201 0.0 0.0 0.00 0.00 0.00 97 1012.2
20260902044611 71 201 0.0 0.0 0.00 0.00 0.00 95 1011.4
20260902044457 71 201 0.0 0.0 0.00 0.00 0.00 95 1011.4
20260902044150 71 201 0.0 0.0 0.00 0.00 0.00 95 1010.9
20260902044002 71 201 0.0 0.0 0.00 0.00 0.00 95 1010.9
20260902043632 71 201 0.0 0.0 0.00 0.00 0.00 95 1011.0
20260902043456 71 201 0.0 0.0 0.00 0.00 0.00 95 1011.0
20260902042956 71 201 0.0 0.0 0.00 0.00 0.00 95 1010.9
20260902042456 71 201 0.0 0.0 0.00 0.00 0.00 94 1010.8
20260902042133 72 201 0.0 0.0 0.00 0.00 0.00 94 1010.8
20260902041956 72 201 0.0 0.0 0.00 0.00 0.00 94 1010.8
20260902040957 72 201 0.0 0.0 0.00 0.00 0.00 93 1010.5
20260902035957 72 201 0.0 0.0 0.00 0.00 0.00 93 1010.6
20260902034626 72 201 0.0 0.0 0.00 0.00 0.00 92 1010.5
20260902034456 72 201 0.0 0.0 0.00 0.00 0.00 92 1010.5
20260902033956 72 201 0.0 0.0 0.00 0.00 0.00 92 1010.6
20260902033456 72 201 0.0 0.0 0.00 0.00 0.00 91 1010.7
20260902033118 73 201 0.0 0.0 0.00 0.00 0.00 91 1011.0
20260902032956 73 201 0.0 0.0 0.00 0.00 0.00 91 1011.0
20260902032456 73 201 0.0 0.0 0.00 0.00 0.00 91 1011.1
20260902031957 73 201 0.0 0.0 0.00 0.00 0.00 91 1011.2
20260902031456 73 201 0.0 0.0 0.00 0.00 0.00 90 1011.4
20260902030956 73 201 0.0 0.0 0.00 0.00 0.00 89 1011.5
20260902030640 73 201 0.0 0.0 0.00 0.00 0.00 89 1011.5
20260902030457 73 201 0.0 0.0 0.00 0.00 0.00 89 1011.5
20260902030000 73 201 0.0 0.0 0.00 0.00 0.00 89 1011.4
20260902025631 73 201 0.0 0.0 0.00 0.00 0.00 88 1011.4
20260902025456 73 201 0.0 0.0 0.00 0.00 0.00 88 1011.4
20260902024956 73 201 0.0 0.0 0.00 0.00 0.00 87 1011.2
20260902024116 74 201 0.0 0.0 0.00 0.00 0.00 87 1011.1
20260902023956 74 201 0.0 0.0 0.00 0.00 0.00 87 1011.1
20260902023456 74 201 0.0 0.0 0.00 0.00 0.00 86 1011.1
20260902023109 74 201 0.0 0.0 0.00 0.00 0.00 86 1011.0
20260902022957 74 201 0.0 0.0 0.00 0.00 0.00 86 1011.0
20260902022058 75 201 0.0 0.0 0.00 0.00 0.00 85 1011.1
20260902021957 75 201 0.0 0.0 0.00 0.00 0.00 85 1011.1
20260902021030 75 201 0.0 0.0 0.00 0.00 0.00 84 1011.1
20260902020956 75 201 0.0 0.0 0.00 0.00 0.00 84 1011.1
20260902020457 75 201 0.0 0.0 0.00 0.00 0.00 84 1011.1
20260902015958 75 201 0.0 0.0 0.00 0.00 0.00 83 1011.1
20260902015501 75 201 0.0 0.0 0.00 0.00 0.00 83 1011.1
20260902015000 76 201 0.0 0.0 0.00 0.00 0.00 82 1011.1
20260902014456 76 201 0.0 0.0 0.00 0.00 0.00 81 1011.0
20260902013956 76 201 0.0 0.0 0.00 0.00 0.00 80 1010.9
20260902013456 77 201 0.0 0.0 0.00 0.00 0.00 80 1010.8
20260902012956 77 201 0.0 0.0 0.00 0.00 0.00 80 1010.8
20260902012456 77 201 0.0 0.0 0.00 0.00 0.00 80 1010.9
20260902012028 77 201 0.0 0.0 0.00 0.00 0.00 78 1010.8
20260902011956 77 201 0.0 0.0 0.00 0.00 0.00 78 1010.8
20260902011457 78 201 0.0 0.0 0.00 0.00 0.00 77 1010.8
20260902010956 78 201 0.0 0.0 0.00 0.00 0.00 76 1010.9
20260902010456 78 201 0.0 0.0 0.00 0.00 0.00 75 1010.8
20260902005957 79 201 0.0 0.0 0.00 0.00 0.00 74 1010.7
20260902005503 79 201 0.0 0.0 0.00 0.00 0.00 73 1010.6
20260902004631 80 201 0.0 0.0 0.00 0.00 0.00 72 1010.7
20260902004456 80 201 0.0 0.0 0.00 0.00 0.00 72 1010.7
20260902003956 80 201 0.0 0.0 0.00 0.00 0.00 72 1010.6
20260902003458 80 201 0.0 0.0 0.00 0.00 0.00 72 1010.7
20260902002456 80 201 0.0 0.0 0.00 0.00 0.00 70 1010.7
20260902001956 81 201 0.0 0.0 0.00 0.00 0.00 70 1010.7
20260902001456 81 201 0.0 0.0 0.00 0.00 0.00 70 1010.7
20260902000957 81 201 0.0 0.0 0.00 0.00 0.00 69 1010.8
20260901235456 81 260 0.0 3.0 0.00 0.00 0.00 68 1010.9
20260901234959 81 282 0.0 0.0 0.00 0.00 0.00 68 1011.0
20260901234456 81 282 0.0 0.0 0.00 0.00 0.00 67 1011.0
20260901233457 82 282 0.0 4.0 0.00 0.00 0.00 66 1011.1
20260901232956 82 267 0.0 0.0 0.00 0.00 0.00 66 1011.1
20260901232456 82 267 0.0 0.0 0.00 0.00 0.00 65 1011.0
20260901231956 82 267 0.0 0.0 0.00 0.00 0.00 65 1011.0
20260901231534 82 267 0.0 0.0 0.00 0.00 0.00 64 1011.0
20260901231457 82 267 0.0 0.0 0.00 0.00 0.00 64 1011.0
20260901230957 82 267 0.0 0.0 0.00 0.00 0.00 64 1011.0
20260901230456 82 267 0.0 0.0 0.00 0.00 0.00 64 1011.0
20260901225958 82 267 0.0 0.0 0.00 0.00 0.00 63 1010.9
20260901225458 82 267 0.0 0.0 0.00 0.00 0.00 63 1011.0
20260901224956 82 267 0.0 4.0 0.00 0.00 0.00 62 1010.9
20260901224458 82 305 0.0 0.0 0.00 0.00 0.00 62 1011.1
20260901223959 83 305 0.0 0.0 0.00 0.00 0.00 61 1011.0
20260901223457 83 305 0.0 0.0 0.00 0.00 0.00 60 1010.9
20260901223001 83 305 0.0 2.0 0.00 0.00 0.00 60 1010.9
20260901222457 83 289 0.0 3.0 0.00 0.00 0.00 59 1011.1
20260901221957 83 281 0.0 0.0 0.00 0.00 0.00 59 1011.0
20260901221457 83 281 0.0 0.0 0.00 0.00 0.00 59 1011.0
20260901220956 83 281 0.0 3.0 0.00 0.00 0.00 59 1011.1
20260901215500 83 225 0.0 5.0 0.00 0.00 0.00 59 1010.9
20260901215021 83 239 0.0 5.0 0.00 0.00 0.00 59 1011.0
20260901213459 83 158 2.0 4.0 0.00 0.00 0.00 60 1011.0
20260901213001 83 264 0.0 5.0 0.00 0.00 0.00 60 1011.0
20260901211500 83 237 5.0 5.0 0.00 0.00 0.00 60 1011.0
20260901210000 83 232 0.0 5.0 0.00 0.00 0.00 58 1011.0
20260901205456 83 187 2.0 5.0 0.00 0.00 0.00 59 1010.8
20260901204958 83 223 0.0 0.0 0.00 0.00 0.00 58 1010.9
20260901203957 83 223 0.0 0.0 0.00 0.00 0.00 57 1010.8
20260901203458 83 223 0.0 0.0 0.00 0.00 0.00 59 1010.8
20260901202958 83 223 0.0 1.0 0.00 0.00 0.00 58 1011.0
20260901201956 83 275 5.0 5.0 0.00 0.00 0.00 59 1011.2
20260901201456 83 272 0.0 0.0 0.00 0.00 0.00 58 1011.4
20260901200457 83 282 3.0 5.0 0.00 0.00 0.00 59 1011.4
20260901195958 83 246 0.0 4.0 0.00 0.00 0.00 59 1011.1
20260901195457 83 147 0.0 5.0 0.00 0.00 0.00 60 1011.1
20260901194956 83 205 4.0 7.0 0.00 0.00 0.00 59 1011.1
20260901193957 84 227 0.0 7.0 0.00 0.00 0.00 55 1011.5
20260901193501 83 243 3.0 5.0 0.00 0.00 0.00 55 1011.5
20260901192458 84 163 0.0 6.0 0.00 0.00 0.00 55 1011.2
20260901192001 84 222 5.0 7.0 0.00 0.00 0.00 54 1011.5
20260901191457 84 199 3.0 5.0 0.00 0.00 0.00 54 1011.6
20260901190456 84 194 0.0 5.0 0.00 0.00 0.00 57 1011.6
20260901190000 83 326 0.0 0.0 0.00 0.00 0.00 57 1011.7
20260901185456 83 326 0.0 7.0 0.00 0.00 0.00 58 1011.7
20260901184956 83 18 0.0 3.0 0.00 0.00 0.00 58 1011.7
20260901183958 84 298 0.0 7.0 0.00 0.00 0.00 58 1011.7
20260901183928 84 358 0.0 7.0 0.00 0.00 0.00 58 1011.5
20260901183712 84 358 0.0 7.0 0.00 0.00 0.00 58 1011.5
20260901183509 84 358 0.0 7.0 0.00 0.00 0.00 58 1011.5
20260901182956 84 30 3.0 7.0 0.00 0.00 0.00 57 1011.4
20260901182456 85 49 6.0 6.0 0.00 0.00 0.00 56 1011.5
20260901181956 84 281 0.0 0.0 0.00 0.00 0.00 58 1011.6
20260901181458 84 281 0.0 4.0 0.00 0.00 0.00 57 1011.7
20260901180959 84 230 0.0 0.0 0.00 0.00 0.00 57 1011.9
20260901175457 83 219 0.0 4.0 0.00 0.00 0.00 57 1012.1
20260901173459 83 212 3.0 5.0 0.00 0.00 0.00 55 1012.3
20260901172622 83 291 0.0 6.0 0.00 0.00 0.00 54 1012.5
20260901172459 83 291 0.0 6.0 0.00 0.00 0.00 54 1012.5
20260901171956 83 102 0.0 4.0 0.00 0.00 0.00 60 1012.5
20260901171505 83 313 0.0 5.0 0.00 0.00 0.00 59 1012.5
20260901170958 83 350 0.0 6.0 0.00 0.00 0.00 57 1012.5
20260901170459 83 326 5.0 5.0 0.00 0.00 0.00 58 1012.6
20260901170000 83 270 0.0 5.0 0.00 0.00 0.00 60 1012.6
20260901165500 83 327 0.0 6.0 0.00 0.00 0.00 60 1012.7
20260901164502 81 201 0.0 5.0 0.00 0.00 0.00 63 1012.7
20260901163956 81 142 0.0 4.0 0.00 0.00 0.00 65 1012.7
20260901163457 81 271 4.0 7.0 0.00 0.00 0.00 64 1012.8
20260901162957 81 220 0.0 6.0 0.00 0.00 0.00 67 1012.9
20260901162656 80 358 0.0 5.0 0.00 0.00 0.00 68 1012.8
20260901162526 80 358 0.0 5.0 0.00 0.00 0.00 68 1012.8
20260901162456 80 358 0.0 5.0 0.00 0.00 0.00 68 1012.8
20260901161956 80 285 0.0 7.0 0.00 0.00 0.00 66 1012.8
20260901160956 80 230 0.0 1.0 0.00 0.00 0.00 69 1012.7
20260901160456 79 230 0.0 6.0 0.00 0.00 0.00 69 1012.7
20260901160146 79 270 0.0 3.0 0.00 0.00 0.00 72 1012.7
20260901160002 79 270 0.0 3.0 0.00 0.00 0.00 72 1012.7
20260901154710 78 345 4.0 7.0 0.00 0.00 0.00 72 1012.4
20260901154531 78 345 4.0 7.0 0.00 0.00 0.00 72 1012.4
20260901154456 78 345 4.0 7.0 0.00 0.00 0.00 72 1012.4
20260901153956 78 189 3.0 5.0 0.00 0.00 0.00 72 1012.5
20260901153456 78 255 0.0 0.0 0.00 0.00 0.00 74 1012.6
20260901151958 77 292 4.0 4.0 0.00 0.00 0.00 76 1012.7
20260901150548 77 226 2.0 5.0 0.00 0.00 0.00 74 1012.8
20260901150456 77 226 2.0 5.0 0.00 0.00 0.00 74 1012.8
20260901144252 75 348 0.0 4.0 0.00 0.00 0.00 80 1013.0
20260901144032 75 348 0.0 4.0 0.00 0.00 0.00 80 1013.0
20260901143956 75 348 0.0 4.0 0.00 0.00 0.00 80 1013.0